Total_Precipitation_Accumulation
1.73 1.65 1.56 1.46 1.47 1.50 1.52 1.62 1.81 1.77 1.46 1.15 1.07 1.11 1.17 1.22 1.36 1.31 1.23 1.46 1.47 1.44 1.47 1.52 1.54 1.45 1.42 1.50 1.57 1.63 1.71 1.79 1.86 1.92 1.95 1.91 1.93 2.06
1.62 1.63 1.57 1.45 1.43 1.48 1.54 1.60 1.70 1.77 1.60 1.18 1.04 1.08 1.23 1.34 1.51 1.39 1.30 1.54 1.52 1.47 1.45 1.41 1.36 1.32 1.26 1.28 1.38 1.45 1.46 1.48 1.57 1.70 1.86 1.94 2.00 2.12
1.53 1.56 1.56 1.52 1.52 1.53 1.59 1.66 1.74 1.82 1.79 1.40 1.16 1.13 1.23 1.29 1.33 1.29 1.26 1.28 1.29 1.45 1.38 1.28 1.22 1.19 1.16 1.11 1.14 1.22 1.29 1.33 1.38 1.48 1.63 1.77 1.82 1.85
1.47 1.52 1.54 1.54 1.58 1.60 1.65 1.68 1.69 1.69 1.69 1.55 1.30 1.16 1.13 1.12 1.14 1.16 1.15 1.12 1.09 1.26 1.26 1.21 1.15 1.14 1.13 1.09 1.05 1.06 1.13 1.22 1.25 1.28 1.33 1.40 1.48 1.54
1.35 1.40 1.40 1.45 1.51 1.52 1.58 1.63 1.60 1.58 1.56 1.48 1.27 1.09 1.03 1.04 1.11 1.13 1.09 1.06 0.99 1.07 1.12 1.12 1.10 1.09 1.12 1.07 1.03 0.99 0.95 0.96 0.99 1.03 1.09 1.17 1.26 1.32
1.21 1.28 1.32 1.36 1.38 1.42 1.50 1.53 1.52 1.53 1.54 1.51 1.40 1.20 1.06 1.00 1.05 1.08 1.08 1.02 0.95 0.90 1.06 1.07 1.08 1.09 1.08 0.99 0.91 0.86 0.83 0.84 0.89 0.96 1.04 1.09 1.13 1.19
1.19 1.24 1.31 1.48 1.51 1.46 1.44 1.41 1.41 1.47 1.50 1.49 1.38 1.23 1.09 1.01 1.02 0.96 0.96 1.00 1.02 0.94 0.97 0.99 0.98 0.98 1.03 1.06 1.02 0.92 0.89 0.90 0.92 0.96 1.04 1.12 1.16 1.20
1.23 1.21 1.24 1.38 1.37 1.38 1.37 1.34 1.36 1.43 1.47 1.41 1.26 1.08 0.91 0.79 0.80 0.90 0.98 1.09 1.14 0.95 0.94 1.00 0.97 1.02 0.99 0.97 1.08 1.03 0.97 1.00 0.99 0.99 1.01 1.04 1.07 1.12
1.21 1.19 1.14 1.10 1.15 1.02 1.10 1.22 1.26 1.26 1.20 1.14 1.11 0.93 0.81 0.75 0.84 1.00 1.03 1.02 0.92 0.79 0.91 1.11 1.06 1.06 0.96 0.99 1.08 1.01 1.01 1.02 1.02 0.99 0.96 0.97 1.01 1.04
1.05 1.03 0.99 0.93 0.92 0.95 0.96 1.03 0.97 0.95 0.94 0.86 0.83 0.77 0.76 0.81 0.92 1.04 1.13 1.19 1.08 0.96 0.98 1.14 1.04 0.98 0.90 0.92 1.04 0.98 0.98 1.03 1.04 1.04 1.02 1.00 0.99 1.03
0.90 0.88 0.88 0.84 0.95 1.05 0.98 0.93 0.87 0.87 0.93 0.94 0.94 0.94 1.00 1.08 1.14 1.24 1.37 1.51 1.38 1.08 0.91 0.92 0.88 0.85 0.85 0.87 0.92 0.99 0.97 0.99 1.05 1.09 1.10 1.08 1.04 1.03
0.77 0.76 0.84 0.84 0.97 1.06 0.97 0.93 0.88 0.76 0.77 0.85 0.89 0.90 0.88 0.95 1.12 1.12 1.20 1.48 1.36 1.08 0.73 0.74 0.79 0.89 1.12 0.89 0.80 0.84 0.92 0.99 0.99 1.01 1.04 1.09 1.14 1.13
0.79 0.79 0.80 0.90 0.96 1.02 1.03 0.92 0.88 0.86 0.81 0.84 0.88 0.88 0.89 0.91 0.95 0.97 1.02 1.28 1.46 1.15 0.65 0.87 1.10 0.97 1.18 0.96 0.75 0.73 0.76 0.85 0.94 0.98 1.02 1.04 1.10 1.24
0.83 0.81 0.87 1.00 1.06 1.08 1.04 0.99 1.04 1.06 0.95 0.96 0.99 0.96 0.91 0.88 0.84 0.85 0.92 0.95 1.02 1.00 0.76 1.02 1.47 1.23 1.36 1.16 0.79 0.69 0.72 0.76 0.82 0.90 0.94 1.11 1.19 1.23
0.82 0.89 0.96 1.02 1.05 1.05 1.08 1.07 1.03 0.96 0.96 1.01 0.98 0.88 0.80 0.80 0.86 0.94 1.01 1.01 0.99 0.93 0.86 0.89 1.15 1.25 1.51 1.50 1.03 0.71 0.74 0.80 0.79 0.87 0.96 1.04 1.13 1.25
0.87 0.91 0.95 0.95 0.95 0.96 1.02 1.04 0.99 0.97 1.00 1.00 0.95 0.91 0.92 0.97 1.01 1.01 1.10 1.13 1.20 1.09 0.94 0.86 0.93 1.26 1.53 1.26 1.20 1.01 0.82 0.88 0.84 0.91 1.00 0.99 0.97 1.06
0.99 0.96 0.90 0.86 0.87 0.90 0.89 0.91 0.96 1.00 1.03 0.98 1.00 1.05 1.05 1.04 1.04 1.00 1.07 1.15 1.20 1.02 0.91 0.88 0.92 1.03 1.19 1.24 1.26 0.99 0.86 0.90 0.93 1.03 1.16 1.17 1.01 1.00
1.09 1.01 0.87 0.81 0.80 0.81 0.84 0.88 0.91 0.95 0.96 1.00 1.05 1.07 1.11 1.11 1.08 1.04 1.07 1.16 1.14 0.96 0.85 0.83 0.96 1.19 1.22 1.10 0.98 0.93 0.93 0.96 0.96 1.02 1.16 1.36 1.16 0.97
0.96 0.84 0.77 0.76 0.77 0.79 0.82 0.85 0.86 0.86 0.94 1.04 1.09 1.11 1.14 1.16 1.15 1.14 1.12 1.15 1.11 0.99 0.90 0.88 1.06 1.49 1.61 1.10 0.73 0.72 0.95 1.04 1.05 1.15 1.21 1.37 1.39 1.09
0.76 0.71 0.71 0.73 0.79 0.85 0.89 0.91 0.91 0.91 0.95 1.01 1.05 1.10 1.17 1.25 1.23 1.14 1.11 1.14 1.15 1.07 0.99 0.92 0.98 1.33 1.77 1.46 1.07 0.70 0.71 0.99 1.33 1.46 1.27 1.16 1.15 1.06
0.70 0.70 0.74 0.80 0.85 0.90 0.94 0.99 1.03 1.03 1.00 1.05 1.08 1.09 1.15 1.29 1.25 1.11 1.11 1.10 1.17 1.18 1.08 0.88 0.78 0.94 1.37 1.80 1.54 0.89 0.75 0.83 1.14 1.59 1.66 1.62 1.36 1.09
0.80 0.81 0.81 0.85 0.91 0.95 0.99 1.02 1.05 1.04 1.05 1.09 1.10 1.11 1.14 1.26 1.28 1.18 1.17 1.21 1.14 1.07 1.02 0.91 0.91 1.09 1.42 1.77 1.41 0.89 0.78 0.81 0.91 1.00 1.31 1.87 2.38 2.13
0.88 0.91 0.91 0.92 0.96 1.01 1.05 1.05 1.03 0.99 1.00 1.07 1.09 1.10 1.14 1.20 1.16 1.18 1.19 1.22 1.25 1.19 1.14 1.11 1.05 1.10 1.17 1.23 1.26 1.03 0.85 0.80 0.82 0.89 0.97 1.04 1.24 1.45